Location: Caltech
(34.1382°N, 118.1253°W)
Time: 18:50:30
(UTC-08:00)

Cosmos 2219 Rocket - Visible Passes

Search period start: 11 December 2017 00:00
Search period end: 21 December 2017 00:00
Orbit: 828 x 847 km, 71.0° (Epoch: 11 December)

Date Brightness Start Highest point End Pass type
(mag) Time Alt. Az. Time Alt. Az. Time Alt. Az.
18 Dec 4.1 06:08:14 10° N 06:13:00 27° ENE 06:17:46 10° ESE visible
19 Dec 4.2 05:51:59 10° N 05:56:37 25° ENE 06:01:13 10° ESE visible
20 Dec 4.3 05:35:44 10° N 05:40:12 23° ENE 05:44:39 10° ESE visible
